Flag for Canada Weather past 2 weeks in Brampton, Ontario, Canada

Now
75 °F

Partly sunny.


Feels Like: 77 °F
Forecast: 60 / 77 °F
Wind: 7 mph from Southeast

Location: Toronto Pearson International Airport

Current Time: Aug 20, 2014 at 3:13:38 PM

Latest Report: Aug 20, 2014 at 2:00 PM


Visibility: 15 mi

Pressure: 29.89 "Hg

Humidity: 74%

Dew point: 66 °F

Location of BramptonLocation

Historic Weather in Brampton — Graph

°F

Brampton temperature yesterday

Maximum temperature yesterday: 72 °F (at 1:00 PM)
Minimum temperature yesterday: 54 °F (at 5:00 AM)
Average temperature yesterday: 64 °F

Past Weeks' High & Low Weather Summary

 TemperatureHumidityPressure
High82 °F (Aug 11, 3:00 PM)94% (Aug 6, 4:00 AM)30.19 "Hg (Aug 6, 4:00 AM)
Low54 °F (Aug 14, 5:00 AM)36% (Aug 7, 5:00 PM)29.67 "Hg (Aug 12, 4:00 PM)
Average67 °F69%29.95 "Hg
* Reported Aug 5 2:00 PM — Aug 20 2:00 PM, Brampton, Weather by CustomWeather, © 2014

Note: Actual official high and low records may vary slightly from our data, if they occured in-between our weather recording intervals... More about our weather records

Advertising

Brampton weather history for previous 24 hours

 ConditionsComfort  
Time TempWeatherWind HumidityBarometerVisibility
2:00 PM
Aug 20
75 °FPartly sunny.7 mph74%29.89 "Hg15 mi
1:00 PM72 °FCloudy.8 mph78%29.90 "Hg12 mi
12:00 PM72 °FPartly sunny.6 mph83%29.89 "Hg12 mi
11:00 AM68 °FPartly sunny.3 mph88%29.89 "Hg15 mi
10:00 AM64 °FSprinkles. Cloudy.3 mph94%29.90 "Hg10 mi
9:00 AM64 °FMore clouds than sun.5 mph88%29.88 "Hg15 mi
8:00 AM64 °FMostly cloudy.5 mph83%29.87 "Hg15 mi
7:00 AM64 °FMostly cloudy.3 mph83%29.86 "Hg15 mi
6:00 AM64 °FPassing clouds.6 mph83%29.85 "Hg15 mi
5:00 AM63 °FPartly cloudy.5 mph88%29.83 "Hg15 mi
4:00 AM64 °FPartly cloudy.3 mph83%29.83 "Hg15 mi
3:00 AM64 °FPassing clouds.2 mph83%29.83 "Hg15 mi
2:46 AM64 °FPassing clouds.2 mph83%29.83 "Hg15 mi
2:00 AM64 °FOvercast.2 mph83%29.83 "Hg15 mi
1:00 AM64 °FMostly cloudy.7 mph78%29.84 "Hg15 mi
12:00 AM66 °FPartly cloudy.8 mph68%29.83 "Hg15 mi
11:00 PM
Aug 19
64 °FPartly cloudy.7 mph78%29.83 "Hg15 mi
10:00 PM64 °FPassing clouds.5 mph73%29.85 "Hg15 mi
9:00 PM66 °FBroken clouds.6 mph68%29.86 "Hg15 mi
8:00 PM66 °FPartly sunny.6 mph73%29.85 "Hg15 mi
7:00 PM68 °FBroken clouds.6 mph69%29.86 "Hg15 mi
6:00 PM68 °FScattered clouds.8 mph64%29.86 "Hg15 mi
5:00 PM72 °FPassing clouds.13 mph53%29.85 "Hg15 mi
4:00 PM72 °FPassing clouds.12 mph53%29.86 "Hg15 mi
3:00 PM72 °FPassing clouds.12 mph57%29.87 "Hg15 mi
Weather by CustomWeather, © 2014

See weather overviewHow to use our weather pages